Time,TemperatureF,DewpointF,PressureIn,WindDirection,WindDirectionDegrees,WindSpeedMPH,WindSpeedGustMPH,Humidity,HourlyPrecipIn,Conditions,Clouds,dailyrainin,SoftwareType,DateUTC
2013-02-08 00:02:00,33.0,32.0,29.89,WNW,302,11.0,19.0,96,0.00,,,0.18,,2013-02-08 05:02:00,
2013-02-08 00:11:00,33.0,32.0,29.89,WNW,302,11.0,19.0,96,0.00,,,0.18,,2013-02-08 05:11:00,
2013-02-08 00:22:00,33.0,32.0,29.90,NW,306,12.0,17.0,96,0.00,,,0.18,,2013-02-08 05:22:00,
2013-02-08 00:32:00,33.0,32.0,29.90,WNW,299,13.0,19.0,96,0.00,,,0.18,,2013-02-08 05:32:00,
2013-02-08 00:42:00,33.0,32.0,29.90,WNW,299,13.0,19.0,96,0.00,,,0.18,,2013-02-08 05:42:00,
2013-02-08 00:52:00,33.0,32.0,29.90,WNW,295,14.0,18.0,96,0.00,,,0.18,,2013-02-08 05:52:00,
2013-02-08 01:01:00,33.0,32.0,29.91,WNW,300,10.0,18.0,96,0.00,,,0.18,,2013-02-08 06:01:00,
2013-02-08 01:11:00,33.0,32.0,29.91,WNW,300,10.0,18.0,96,0.00,,,0.18,,2013-02-08 06:11:00,
2013-02-08 01:21:00,33.0,32.0,29.91,NW,306,12.0,19.0,96,0.00,,,0.18,,2013-02-08 06:21:00,
2013-02-08 01:32:00,33.0,32.0,29.93,NW,306,10.0,18.0,96,0.00,,,0.18,,2013-02-08 06:32:00,
2013-02-08 01:42:00,33.0,32.0,29.93,NW,306,10.0,18.0,96,0.00,,,0.18,,2013-02-08 06:42:00,
2013-02-08 01:51:00,33.0,32.0,29.93,WNW,303,11.0,17.0,95,0.00,,,0.18,,2013-02-08 06:51:00,
2013-02-08 02:01:00,33.0,32.0,29.93,NNW,341,9.0,18.0,95,0.00,,,0.18,,2013-02-08 07:01:00,
2013-02-08 02:11:00,33.0,32.0,29.93,NNW,341,9.0,18.0,95,0.00,,,0.18,,2013-02-08 07:11:00,
2013-02-08 02:21:00,33.0,31.0,29.93,NNW,343,11.0,16.0,94,0.00,,,0.18,,2013-02-08 07:21:00,
2013-02-08 02:32:00,33.0,31.0,29.94,NW,323,10.0,15.0,94,0.00,,,0.18,,2013-02-08 07:32:00,
2013-02-08 02:42:00,33.0,31.0,29.95,NNW,331,10.0,18.0,93,0.00,,,0.18,,2013-02-08 07:42:00,
2013-02-08 02:51:00,33.0,31.0,29.95,NNW,331,10.0,18.0,93,0.00,,,0.18,,2013-02-08 07:51:00,
2013-02-08 03:01:00,33.0,31.0,29.96,NNW,342,10.0,18.0,93,0.00,,,0.18,,2013-02-08 08:01:00,
2013-02-08 03:11:00,33.0,31.0,29.96,NNW,342,10.0,18.0,93,0.00,,,0.18,,2013-02-08 08:11:00,
2013-02-08 03:21:00,33.0,31.0,29.97,NW,319,11.0,17.0,93,0.00,,,0.18,,2013-02-08 08:21:00,
2013-02-08 03:32:00,33.0,31.0,29.97,NW,314,10.0,18.0,93,0.00,,,0.18,,2013-02-08 08:32:00,
2013-02-08 03:42:00,33.0,31.0,29.97,NW,314,10.0,18.0,93,0.00,,,0.18,,2013-02-08 08:42:00,
2013-02-08 03:52:00,33.0,31.0,29.98,NW,314,12.0,17.0,93,0.00,,,0.18,,2013-02-08 08:52:00,
2013-02-08 04:03:00,33.0,31.0,29.98,NW,314,12.0,17.0,93,0.00,,,0.18,,2013-02-08 09:03:00,
2013-02-08 04:11:00,33.0,31.0,29.98,NW,314,12.0,17.0,93,0.00,,,0.18,,2013-02-08 09:11:00,
2013-02-08 04:21:00,33.0,31.0,29.98,NNW,331,9.0,17.0,93,0.00,,,0.18,,2013-02-08 09:21:00,
2013-02-08 04:32:00,33.0,31.0,30.00,NNW,329,7.0,12.0,93,0.00,,,0.18,,2013-02-08 09:32:00,
2013-02-08 04:42:00,33.0,31.0,30.00,NNW,329,7.0,12.0,93,0.00,,,0.18,,2013-02-08 09:42:00,
2013-02-08 04:52:00,33.0,31.0,30.00,NNW,347,10.0,16.0,92,0.00,,,0.18,,2013-02-08 09:52:00,
2013-02-08 05:01:00,32.0,30.0,30.01,NW,319,13.0,23.0,92,0.00,,,0.18,,2013-02-08 10:01:00,
2013-02-08 05:11:00,32.0,30.0,30.01,NW,319,13.0,23.0,92,0.00,,,0.18,,2013-02-08 10:11:00,
2013-02-08 05:22:00,32.0,30.0,30.02,NNW,338,11.0,17.0,93,0.00,,,0.18,,2013-02-08 10:22:00,
2013-02-08 05:32:00,32.0,30.0,30.03,NNW,330,11.0,20.0,93,0.00,,,0.18,,2013-02-08 10:32:00,
2013-02-08 05:42:00,32.0,30.0,30.03,NNW,330,11.0,20.0,93,0.00,,,0.18,,2013-02-08 10:42:00,
2013-02-08 05:51:00,32.0,30.0,30.04,NNW,342,12.0,18.0,92,0.00,,,0.18,,2013-02-08 10:51:00,
2013-02-08 06:01:00,31.0,29.0,30.04,NNW,337,10.0,20.0,92,0.00,,,0.18,,2013-02-08 11:01:00,
2013-02-08 06:11:00,31.0,29.0,30.04,NNW,337,10.0,20.0,92,0.00,,,0.18,,2013-02-08 11:11:00,
2013-02-08 06:21:00,31.0,29.0,30.05,North,351,9.0,16.0,91,0.00,,,0.18,,2013-02-08 11:21:00,
2013-02-08 06:32:00,31.0,28.0,30.07,NNE,13,10.0,16.0,90,0.00,,,0.18,,2013-02-08 11:32:00,
2013-02-08 06:42:00,31.0,28.0,30.07,NNE,13,10.0,16.0,90,0.00,,,0.18,,2013-02-08 11:42:00,
2013-02-08 06:52:00,30.0,28.0,30.08,NNW,346,11.0,17.0,91,0.00,,,0.18,,2013-02-08 11:52:00,
2013-02-08 07:02:00,30.0,27.0,30.08,North,355,11.0,16.0,90,0.00,,,0.18,,2013-02-08 12:02:00,
2013-02-08 07:11:00,30.0,27.0,30.08,North,355,11.0,16.0,90,0.00,,,0.18,,2013-02-08 12:11:00,
2013-02-08 07:22:00,30.0,28.0,30.09,North,355,8.0,18.0,91,0.00,,,0.18,,2013-02-08 12:22:00,
2013-02-08 07:33:00,29.0,26.0,30.10,NW,321,8.0,15.0,90,0.00,,,0.18,,2013-02-08 12:33:00,
2013-02-08 07:42:00,29.0,26.0,30.10,NW,321,8.0,15.0,90,0.00,,,0.18,,2013-02-08 12:42:00,
2013-02-08 07:52:00,29.0,26.0,30.11,NNW,330,10.0,16.0,90,0.00,,,0.18,,2013-02-08 12:52:00,
2013-02-08 08:01:00,29.0,27.0,30.13,NW,315,8.0,14.0,91,0.00,,,0.18,,2013-02-08 13:01:00,
2013-02-08 08:11:00,29.0,27.0,30.13,NW,315,8.0,14.0,91,0.00,,,0.18,,2013-02-08 13:11:00,
2013-02-08 08:22:00,29.0,27.0,30.14,NNW,331,8.0,18.0,91,0.00,,,0.18,,2013-02-08 13:22:00,
2013-02-08 08:32:00,29.0,26.0,30.15,NW,319,9.0,19.0,90,0.00,,,0.18,,2013-02-08 13:32:00,
2013-02-08 08:42:00,29.0,26.0,30.15,NW,319,9.0,19.0,90,0.00,,,0.18,,2013-02-08 13:42:00,
2013-02-08 08:51:00,28.0,26.0,30.15,NW,317,10.0,20.0,91,0.00,,,0.18,,2013-02-08 13:51:00,
2013-02-08 09:02:00,28.0,25.0,30.16,NW,314,13.0,21.0,90,0.00,,,0.18,,2013-02-08 14:02:00,
2013-02-08 09:11:00,28.0,25.0,30.16,NW,314,13.0,21.0,90,0.00,,,0.18,,2013-02-08 14:11:00,
2013-02-08 09:22:00,28.0,26.0,30.18,NNW,333,12.0,17.0,91,0.00,,,0.18,,2013-02-08 14:22:00,
2013-02-08 09:32:00,28.0,26.0,30.19,NNW,329,9.0,17.0,91,0.00,,,0.18,,2013-02-08 14:32:00,
2013-02-08 09:42:00,28.0,26.0,30.19,NNW,329,9.0,17.0,91,0.00,,,0.18,,2013-02-08 14:42:00,
2013-02-08 09:52:00,28.0,26.0,30.19,NW,312,11.0,18.0,91,0.00,,,0.18,,2013-02-08 14:52:00,
2013-02-08 10:02:00,28.0,26.0,30.20,NW,311,12.0,19.0,91,0.00,,,0.18,,2013-02-08 15:02:00,
2013-02-08 10:11:00,28.0,26.0,30.20,NW,311,12.0,19.0,91,0.00,,,0.18,,2013-02-08 15:11:00,
2013-02-08 10:22:00,28.0,26.0,30.21,NNW,333,10.0,17.0,91,0.00,,,0.18,,2013-02-08 15:22:00,
2013-02-08 10:32:00,28.0,26.0,30.21,NW,314,10.0,17.0,91,0.00,,,0.18,,2013-02-08 15:32:00,
2013-02-08 10:42:00,28.0,26.0,30.21,NW,314,10.0,17.0,91,0.00,,,0.18,,2013-02-08 15:42:00,
2013-02-08 10:52:00,28.0,26.0,30.22,WNW,302,12.0,18.0,91,0.00,,,0.18,,2013-02-08 15:52:00,
2013-02-08 11:01:00,28.0,26.0,30.23,NW,325,10.0,18.0,91,0.00,,,0.18,,2013-02-08 16:01:00,
2013-02-08 11:11:00,28.0,26.0,30.23,NW,325,10.0,18.0,91,0.00,,,0.18,,2013-02-08 16:11:00,
2013-02-08 11:22:00,29.0,27.0,30.24,NW,323,10.0,18.0,91,0.00,,,0.18,,2013-02-08 16:22:00,
2013-02-08 11:32:00,29.0,27.0,30.25,NNW,331,11.0,17.0,91,0.00,,,0.18,,2013-02-08 16:32:00,
2013-02-08 11:42:00,29.0,27.0,30.25,NNW,331,11.0,17.0,91,0.00,,,0.18,,2013-02-08 16:42:00,
2013-02-08 11:52:00,29.0,27.0,30.26,NW,313,10.0,17.0,91,0.00,,,0.18,,2013-02-08 16:52:00,
2013-02-08 12:03:00,29.0,26.0,30.26,NNW,331,12.0,21.0,90,0.00,,,0.18,,2013-02-08 17:03:00,
2013-02-08 12:12:00,29.0,26.0,30.26,NNW,331,12.0,21.0,90,0.00,,,0.18,,2013-02-08 17:12:00,
2013-02-08 12:22:00,29.0,26.0,30.26,NNW,338,11.0,19.0,90,0.00,,,0.18,,2013-02-08 17:22:00,
2013-02-08 12:32:00,30.0,27.0,30.26,NNW,336,8.0,16.0,90,0.00,,,0.18,,2013-02-08 17:32:00,
2013-02-08 12:42:00,30.0,27.0,30.26,NNW,336,8.0,16.0,90,0.00,,,0.18,,2013-02-08 17:42:00,
2013-02-08 12:52:00,30.0,27.0,30.26,NW,324,7.0,16.0,90,0.00,,,0.18,,2013-02-08 17:52:00,
2013-02-08 13:02:00,31.0,28.0,30.25,NNW,331,8.0,13.0,89,0.00,,,0.18,,2013-02-08 18:02:00,
2013-02-08 13:12:00,31.0,28.0,30.25,NNW,331,8.0,13.0,89,0.00,,,0.18,,2013-02-08 18:12:00,
2013-02-08 13:24:00,31.0,28.0,30.25,NNW,342,8.0,14.0,89,0.00,,,0.18,,2013-02-08 18:24:00,
2013-02-08 13:35:00,31.0,28.0,30.25,NNW,327,8.0,14.0,89,0.00,,,0.18,,2013-02-08 18:35:00,
2013-02-08 13:43:00,31.0,28.0,30.25,NNW,327,8.0,14.0,89,0.00,,,0.18,,2013-02-08 18:43:00,
2013-02-08 13:52:00,31.0,28.0,30.26,NNW,348,8.0,13.0,89,0.00,,,0.18,,2013-02-08 18:52:00,
2013-02-08 14:02:00,31.0,28.0,30.27,NNW,343,9.0,14.0,88,0.00,,,0.18,,2013-02-08 19:02:00,
2013-02-08 14:11:00,31.0,28.0,30.27,NNW,343,9.0,14.0,88,0.00,,,0.18,,2013-02-08 19:11:00,
2013-02-08 14:22:00,32.0,29.0,30.27,NNW,341,7.0,13.0,89,0.00,,,0.18,,2013-02-08 19:22:00,
2013-02-08 14:32:00,32.0,29.0,30.28,WNW,298,6.0,12.0,88,0.00,,,0.18,,2013-02-08 19:32:00,
2013-02-08 14:42:00,32.0,29.0,30.28,WNW,298,6.0,12.0,88,0.00,,,0.18,,2013-02-08 19:42:00,
2013-02-08 14:52:00,31.0,28.0,30.28,NNW,344,8.0,14.0,88,0.00,,,0.18,,2013-02-08 19:52:00,
2013-02-08 15:02:00,31.0,28.0,30.28,NNW,340,7.0,11.0,89,0.00,,,0.18,,2013-02-08 20:02:00,
2013-02-08 15:11:00,31.0,28.0,30.28,NNW,340,7.0,11.0,89,0.00,,,0.18,,2013-02-08 20:11:00,
2013-02-08 15:22:00,32.0,29.0,30.28,NNW,327,6.0,14.0,88,0.00,,,0.18,,2013-02-08 20:22:00,
2013-02-08 15:32:00,32.0,29.0,30.29,NNW,334,7.0,15.0,87,0.00,,,0.18,,2013-02-08 20:32:00,
2013-02-08 15:42:00,32.0,29.0,30.29,NNW,334,7.0,15.0,87,0.00,,,0.18,,2013-02-08 20:42:00,
2013-02-08 15:52:00,32.0,29.0,30.29,North,355,6.0,11.0,88,0.00,,,0.18,,2013-02-08 20:52:00,
2013-02-08 16:02:00,32.0,29.0,30.30,NW,319,5.0,10.0,88,0.00,,,0.18,,2013-02-08 21:02:00,
2013-02-08 16:11:00,32.0,29.0,30.30,NW,319,5.0,10.0,88,0.00,,,0.18,,2013-02-08 21:11:00,
2013-02-08 16:22:00,31.0,28.0,30.30,North,355,5.0,11.0,88,0.00,,,0.18,,2013-02-08 21:22:00,
2013-02-08 16:32:00,31.0,28.0,30.31,North,349,5.0,10.0,88,0.00,,,0.18,,2013-02-08 21:32:00,
2013-02-08 16:42:00,31.0,28.0,30.31,North,349,5.0,10.0,88,0.00,,,0.18,,2013-02-08 21:42:00,
2013-02-08 16:52:00,31.0,28.0,30.32,NW,325,5.0,10.0,89,0.00,,,0.18,,2013-02-08 21:52:00,
2013-02-08 17:02:00,31.0,28.0,30.32,NNE,13,7.0,11.0,88,0.00,,,0.18,,2013-02-08 22:02:00,
2013-02-08 17:11:00,31.0,28.0,30.32,NNE,13,7.0,11.0,88,0.00,,,0.18,,2013-02-08 22:11:00,
2013-02-08 17:22:00,31.0,28.0,30.32,North,350,5.0,11.0,88,0.00,,,0.18,,2013-02-08 22:22:00,
2013-02-08 17:32:00,31.0,28.0,30.32,North,5,5.0,10.0,88,0.00,,,0.18,,2013-02-08 22:32:00,
2013-02-08 17:42:00,31.0,28.0,30.32,North,5,5.0,10.0,88,0.00,,,0.18,,2013-02-08 22:42:00,
2013-02-08 17:52:00,31.0,28.0,30.33,North,355,4.0,7.0,89,0.00,,,0.18,,2013-02-08 22:52:00,
2013-02-08 18:01:00,31.0,28.0,30.33,NNE,16,5.0,7.0,88,0.00,,,0.18,,2013-02-08 23:01:00,
2013-02-08 18:11:00,31.0,28.0,30.33,NNE,16,5.0,7.0,88,0.00,,,0.18,,2013-02-08 23:11:00,
2013-02-08 18:21:00,31.0,28.0,30.34,North,11,4.0,8.0,89,0.00,,,0.18,,2013-02-08 23:21:00,
2013-02-08 18:32:00,31.0,28.0,30.36,NNW,330,3.0,9.0,89,0.00,,,0.18,,2013-02-08 23:32:00,
2013-02-08 18:42:00,31.0,28.0,30.36,NNW,330,3.0,9.0,89,0.00,,,0.18,,2013-02-08 23:42:00,
2013-02-08 18:52:00,30.0,27.0,30.36,NW,310,5.0,9.0,89,0.00,,,0.18,,2013-02-08 23:52:00,
2013-02-08 19:02:00,30.0,27.0,30.37,North,360,4.0,9.0,89,0.00,,,0.18,,2013-02-09 00:02:00,
2013-02-08 19:11:00,30.0,27.0,30.37,North,360,4.0,9.0,89,0.00,,,0.18,,2013-02-09 00:11:00,
2013-02-08 19:21:00,30.0,27.0,30.37,North,360,4.0,9.0,89,0.00,,,0.18,,2013-02-09 00:21:00,
2013-02-08 19:32:00,30.0,27.0,30.37,North,355,4.0,7.0,89,0.00,,,0.15,,2013-02-09 00:32:00,
2013-02-08 19:42:00,30.0,27.0,30.37,North,355,4.0,7.0,89,0.00,,,0.15,,2013-02-09 00:42:00,
2013-02-08 19:52:00,30.0,27.0,30.38,North,360,3.0,7.0,89,0.00,,,0.15,,2013-02-09 00:52:00,
2013-02-08 20:01:00,30.0,27.0,30.39,North,360,4.0,7.0,89,0.00,,,0.15,,2013-02-09 01:01:00,
2013-02-08 20:11:00,30.0,27.0,30.39,North,360,4.0,7.0,89,0.00,,,0.15,,2013-02-09 01:11:00,
2013-02-08 20:21:00,29.0,26.0,30.39,North,5,3.0,6.0,88,0.00,,,0.15,,2013-02-09 01:21:00,
2013-02-08 20:32:00,29.0,26.0,30.39,NNE,19,3.0,7.0,88,0.00,,,0.05,,2013-02-09 01:32:00,
2013-02-08 20:41:00,29.0,26.0,30.39,NNE,19,3.0,7.0,88,0.00,,,0.05,,2013-02-09 01:41:00,
2013-02-08 20:52:00,29.0,26.0,30.39,NNE,31,2.0,5.0,89,0.00,,,0.05,,2013-02-09 01:52:00,
2013-02-08 21:01:00,28.0,25.0,30.39,NNE,29,2.0,4.0,89,0.00,,,0.05,,2013-02-09 02:01:00,
2013-02-08 21:11:00,28.0,25.0,30.39,NNE,29,2.0,4.0,89,0.00,,,0.05,,2013-02-09 02:11:00,
2013-02-08 21:21:00,28.0,25.0,30.40,NNE,33,1.0,5.0,89,0.00,,,0.05,,2013-02-09 02:21:00,
2013-02-08 21:32:00,28.0,25.0,30.40,NNE,23,0.0,4.0,89,0.00,,,0.01,,2013-02-09 02:32:00,
2013-02-08 21:42:00,28.0,25.0,30.40,NNE,23,0.0,4.0,89,0.00,,,0.01,,2013-02-09 02:42:00,
2013-02-08 21:52:00,27.0,24.0,30.39,NNE,27,0.0,1.0,90,0.00,,,0.01,,2013-02-09 02:52:00,
2013-02-08 22:02:00,27.0,25.0,30.39,North,355,0.0,2.0,91,0.00,,,0.01,,2013-02-09 03:02:00,
2013-02-08 22:11:00,27.0,25.0,30.39,North,355,0.0,2.0,91,0.00,,,0.01,,2013-02-09 03:11:00,
2013-02-08 22:21:00,27.0,24.0,30.39,NNE,31,1.0,4.0,90,0.00,,,0.01,,2013-02-09 03:21:00,
2013-02-08 22:32:00,27.0,24.0,30.40,NNE,23,0.0,2.0,90,0.00,,,0.00,,2013-02-09 03:32:00,
2013-02-08 22:42:00,27.0,24.0,30.40,NNE,23,0.0,2.0,90,0.00,,,0.00,,2013-02-09 03:42:00,
2013-02-08 22:52:00,27.0,24.0,30.40,NNE,23,0.0,2.0,90,0.00,,,0.00,,2013-02-09 03:52:00,
2013-02-08 23:02:00,26.0,23.0,30.41,NNE,19,0.0,1.0,90,0.00,,,0.00,,2013-02-09 04:02:00,
2013-02-08 23:12:00,26.0,23.0,30.41,NNE,19,0.0,1.0,90,0.00,,,0.00,,2013-02-09 04:12:00,
2013-02-08 23:23:00,26.0,23.0,30.41,NNE,19,0.0,0.0,90,0.00,,,0.00,,2013-02-09 04:23:00,
2013-02-08 23:32:00,26.0,24.0,30.41,NNE,19,0.0,1.0,91,0.00,,,0.00,,2013-02-09 04:32:00,
2013-02-08 23:42:00,26.0,24.0,30.41,NNE,19,0.0,1.0,91,0.00,,,0.00,,2013-02-09 04:42:00,
2013-02-08 23:52:00,26.0,24.0,30.41,NNE,19,0.0,1.0,91,0.00,,,0.00,,2013-02-09 04:52:00,